Wind_Speed
20 20 20 20 20 20 20 19 19 19 19 19 19 19 19 19 19 19 19 18 18 19 19 19 19 19 19 19 19 19 20 20 20 20 20 20 20 20 20 20 21 21 22 22 22 22 23 23 23 24 24 24 24 24 24 24 25 25 24 23 24 25 24 23 24 24 23 23 23 22 22 21 21 21 20 19 21 20 17 19 20 18 17 19 20 20 19 19
24 24 23 23 23 23 23 22 22 22 22 22 22 22 22 21 21 21 21 21 21 21 21 22 22 21 21 21 22 22 22 23 23 23 23 23 23 23 23 23 24 24 25 25 25 25 25 26 26 26 26 27 27 27 26 27 27 26 26 24 25 28 25 25 27 26 25 25 25 25 24 22 22 23 22 21 23 22 19 21 24 21 19 20 21 21 21 21
27 27 26 26 26 26 26 25 25 25 25 25 24 24 24 24 24 24 24 24 24 24 24 24 24 24 24 23 23 23 24 25 25 25 25 25 26 26 26 26 26 27 27 27 27 27 28 28 29 29 29 29 29 29 28 29 29 28 27 25 27 29 26 27 29 28 28 27 26 26 26 24 24 24 23 24 24 23 22 24 25 22 21 20 21 22 23 22
30 30 30 29 29 29 29 29 28 28 28 28 28 27 27 27 26 26 26 26 26 26 26 26 26 25 25 24 24 24 24 26 26 26 26 26 27 27 27 27 27 28 28 29 29 29 29 29 29 30 30 30 30 30 30 31 31 29 28 27 28 30 27 29 31 29 30 30 28 28 27 26 26 25 24 26 25 23 23 24 25 24 24 22 20 20 22 23
33 33 33 32 32 32 32 32 31 31 31 31 31 30 30 29 29 29 28 28 28 28 27 27 27 26 26 25 24 24 24 26 27 26 27 27 27 27 27 27 27 27 27 28 28 29 29 29 29 30 30 31 31 31 31 33 32 29 28 29 30 31 28 29 32 31 31 31 30 30 29 28 27 26 26 27 25 24 25 26 26 26 26 24 22 21 22 25
36 35 35 35 35 35 34 34 34 34 33 33 33 32 32 31 31 30 29 29 29 29 28 28 27 27 26 25 24 23 24 26 27 26 27 26 26 26 25 25 25 25 26 27 28 28 29 29 29 29 30 30 31 31 32 33 33 29 27 29 31 32 29 29 33 33 32 32 32 32 31 29 29 28 28 27 24 24 27 29 28 28 28 27 24 23 24 26
37 37 37 37 37 36 36 36 35 35 35 34 34 34 33 32 32 31 30 30 29 29 28 28 27 27 26 24 23 22 21 26 27 25 25 25 25 25 25 26 26 26 26 27 27 28 29 29 29 30 30 30 30 30 31 32 33 30 27 28 31 32 30 29 32 32 33 33 33 34 32 30 31 31 28 25 23 25 30 31 29 28 29 27 25 25 26 27
36 37 37 36 36 35 35 35 35 34 34 34 33 33 33 32 32 31 31 30 30 29 29 29 27 27 26 24 23 20 21 27 28 26 26 27 27 27 27 27 27 27 27 27 28 29 29 30 30 32 31 30 30 29 31 32 32 30 28 28 30 30 30 30 30 31 33 33 34 35 34 32 33 33 27 21 21 27 32 31 30 29 28 27 27 27 28 28
34 34 34 34 34 33 33 33 33 33 32 33 32 32 32 32 32 31 31 31 31 30 29 30 28 28 27 25 25 21 23 31 31 29 29 29 29 29 29 28 28 27 28 29 30 31 31 32 32 34 33 31 30 29 31 33 32 31 31 30 29 29 29 29 29 30 32 32 34 37 36 34 35 34 25 16 21 29 33 32 30 28 26 26 27 28 29 29
32 32 32 32 32 32 32 32 32 32 32 32 32 33 33 32 32 32 32 32 32 31 31 31 31 31 30 29 28 23 27 34 32 31 32 32 31 31 30 29 29 29 30 32 34 34 34 35 35 36 36 34 31 30 32 33 33 33 34 32 29 30 28 27 28 29 31 33 35 40 40 37 36 34 22 14 23 32 33 31 29 28 26 26 27 27 29 28
33 33 33 32 32 32 32 32 32 32 33 33 33 34 34 33 33 33 32 33 33 33 33 34 34 34 33 32 29 26 30 35 33 33 34 34 34 33 32 31 31 32 34 34 35 36 36 36 37 37 38 37 33 33 34 34 35 35 36 34 30 31 29 25 27 28 31 33 35 41 43 39 36 31 21 18 26 33 34 31 28 28 26 26 26 27 27 27
35 35 35 35 34 34 34 34 34 34 34 35 35 36 36 35 35 34 34 35 35 36 36 37 38 38 37 34 29 30 33 34 34 35 36 37 36 35 34 33 33 35 35 36 36 36 36 37 37 38 38 38 34 34 35 35 37 37 38 38 32 33 30 23 26 30 33 35 36 42 46 41 34 27 21 22 28 32 34 32 30 29 28 27 26 27 27 26
38 38 38 38 38 37 37 37 37 37 37 38 38 38 39 38 38 37 37 38 38 38 39 40 41 41 41 35 31 34 35 34 35 37 39 39 37 37 36 36 36 36 36 37 37 37 37 38 39 39 39 38 34 34 35 35 37 36 38 40 35 34 29 22 27 32 33 36 37 43 48 41 32 25 22 25 30 33 34 32 32 31 30 28 27 27 27 28
40 40 40 40 40 40 40 40 40 39 39 40 40 41 41 40 40 39 39 40 40 40 40 42 42 42 42 36 31 34 35 35 37 39 41 40 38 37 37 37 37 37 37 38 38 38 39 40 42 42 40 38 35 35 36 37 37 36 37 39 36 37 33 25 30 34 34 36 38 44 50 44 33 26 23 27 32 34 35 34 33 33 31 30 29 28 27 28
42 42 42 42 42 42 42 42 42 42 41 42 42 42 42 42 42 41 41 41 41 41 41 42 42 43 43 36 30 33 34 36 38 40 41 40 39 38 37 37 37 37 39 39 40 40 41 43 44 44 41 39 36 37 40 42 39 36 40 40 37 41 41 34 33 34 34 36 40 45 50 48 38 29 25 29 33 35 37 36 34 34 33 32 30 29 27 26
44 44 44 44 44 44 44 44 44 44 44 44 44 44 44 44 44 43 42 42 42 42 42 43 42 43 45 37 32 33 34 37 40 41 41 41 40 39 39 40 40 39 40 41 42 42 43 45 46 45 43 40 36 38 44 47 41 36 41 44 42 45 47 42 35 32 34 38 42 46 51 50 42 34 30 31 33 37 39 38 35 34 33 32 31 29 28 27
46 46 46 46 46 46 45 45 45 45 45 45 45 45 45 45 45 45 44 43 43 43 44 44 43 46 46 41 37 35 35 38 40 41 41 42 41 40 41 42 41 42 42 43 42 43 44 47 48 48 45 41 36 39 47 48 42 38 42 47 48 48 49 47 39 32 34 38 43 47 51 50 44 39 36 34 34 38 41 39 36 35 33 32 32 32 30 29
48 48 48 48 48 47 47 47 46 46 46 46 46 46 46 46 46 46 45 45 45 45 46 46 46 48 47 44 42 39 39 40 40 40 40 40 41 42 43 43 43 43 44 44 44 44 46 49 50 50 47 41 37 41 48 48 44 43 46 49 52 51 49 48 43 36 35 40 45 48 50 49 44 41 39 37 37 40 42 40 38 36 34 33 35 36 34 33
50 50 50 50 49 49 49 48 48 48 47 48 48 47 47 48 48 48 47 47 47 47 49 48 48 50 50 47 46 45 44 42 42 41 39 38 39 40 43 45 45 46 46 46 46 47 49 51 53 52 47 39 37 42 48 48 46 47 49 51 52 52 51 48 44 39 39 45 47 48 50 48 45 41 37 36 38 39 40 40 38 37 37 36 37 38 36 35
52 52 51 51 51 51 51 50 50 49 49 49 50 49 49 49 50 50 50 50 49 49 51 51 51 51 51 49 49 50 48 46 44 41 39 38 38 39 42 43 45 47 48 47 48 50 51 54 55 52 44 39 40 45 47 47 47 50 52 53 53 54 52 47 45 41 42 49 50 48 50 48 45 43 38 35 36 37 35 35 36 36 37 37 38 38 36 35
53 53 53 53 52 53 52 52 52 51 51 51 51 51 51 51 52 52 52 52 51 52 53 53 54 53 51 51 52 52 51 49 46 42 40 39 39 41 41 42 44 46 46 47 50 51 52 55 54 48 42 42 45 46 47 48 50 52 53 54 54 54 51 48 47 44 44 51 51 49 50 47 45 44 41 38 36 36 34 32 32 33 35 38 38 37 35 36
55 55 55 55 54 54 54 54 54 54 53 53 53 53 53 54 54 55 56 55 54 54 55 54 55 55 53 53 53 53 54 51 47 44 43 42 42 42 42 44 45 46 46 48 50 50 53 56 51 46 45 48 49 48 49 50 52 53 53 54 54 52 51 51 49 46 48 52 51 50 51 48 45 44 42 40 37 36 35 33 30 29 32 33 34 34 34 35
56 56 56 56 56 56 56 56 56 56 56 55 55 55 56 56 57 58 59 59 57 54 55 55 55 56 55 55 55 55 55 52 49 47 45 45 45 45 45 46 47 48 49 49 47 49 54 54 48 46 49 50 50 50 51 52 53 54 53 54 54 51 52 53 52 51 51 52 52 51 51 49 47 45 43 40 36 33 34 34 31 29 28 29 29 31 32 33
58 58 58 58 58 58 57 57 57 57 57 57 57 58 58 58 59 59 60 61 60 57 55 54 56 58 57 57 56 55 55 53 51 49 47 47 47 47 48 49 50 51 50 48 48 51 54 52 48 48 49 50 51 51 52 52 53 53 53 53 53 51 52 54 55 54 53 52 52 52 51 49 48 46 42 37 34 33 34 37 35 32 31 30 29 30 33 33
60 60 60 60 60 60 59 59 58 58 58 58 59 59 59 59 60 60 61 62 62 60 58 56 56 57 57 56 55 54 54 52 51 51 49 49 49 49 50 51 52 51 48 47 50 54 53 48 47 48 48 49 51 52 50 50 52 54 53 51 51 51 53 53 53 54 54 54 53 54 54 48 46 47 41 34 35 36 36 37 36 33 33 34 31 30 32 33
63 63 63 62 62 62 61 61 60 60 60 60 60 60 60 60 60 61 61 63 63 61 61 61 58 57 56 55 54 54 54 52 52 52 51 51 51 51 52 51 50 49 47 47 50 54 52 46 45 47 49 50 51 52 48 46 51 56 54 50 48 50 52 52 53 54 54 55 54 56 57 51 46 45 43 39 39 40 39 38 36 33 32 33 32 30 31 32
61 62 63 63 63 63 64 63 63 63 62 61 61 61 61 61 61 61 61 63 64 63 64 65 62 59 57 56 56 56 55 54 54 53 52 52 53 53 54 52 49 48 48 49 51 52 50 46 45 47 49 51 52 51 47 46 52 56 53 51 50 51 52 53 54 55 55 55 55 56 59 57 49 43 45 46 45 45 42 39 37 33 30 30 31 32 31 30
54 56 57 58 58 59 60 61 63 63 62 62 62 61 62 61 61 61 61 64 66 65 66 66 64 61 59 58 58 57 58 58 57 56 54 54 54 54 54 52 50 50 49 51 52 50 50 49 48 48 50 52 51 49 49 50 54 54 53 54 54 54 54 54 55 55 56 55 55 56 57 57 50 44 47 50 50 49 45 40 38 36 34 31 31 33 33 32
51 51 51 51 51 51 53 55 58 59 59 60 60 60 60 60 61 60 61 65 68 68 67 65 64 62 61 59 57 56 57 57 57 57 56 54 53 52 51 50 50 50 50 52 52 51 51 52 51 53 53 51 50 51 52 53 54 54 54 55 56 56 55 55 55 56 57 56 54 55 55 54 50 46 48 50 51 52 49 45 43 41 41 38 33 33 35 36
50 50 49 49 49 48 48 50 52 53 54 55 55 56 56 57 58 58 61 66 67 66 64 64 63 61 59 57 55 54 54 54 54 54 55 54 53 51 49 48 49 49 49 50 51 49 50 52 53 54 53 52 52 53 53 54 54 54 54 54 55 56 55 56 57 57 59 58 53 54 52 51 50 48 48 50 53 56 54 51 50 49 49 48 42 37 35 37
49 50 50 50 49 47 46 47 49 50 51 51 51 51 52 53 53 55 61 63 61 59 57 57 57 54 53 52 51 51 52 52 52 51 51 50 49 49 49 48 48 49 49 49 48 47 47 50 51 51 51 51 52 52 52 52 52 51 51 52 53 54 55 57 58 59 61 58 53 53 52 51 53 53 53 54 54 57 57 56 56 55 54 54 52 47 41 40
50 51 51 50 49 49 48 50 51 52 53 53 54 53 53 54 53 53 56 55 54 53 50 49 50 49 49 49 49 50 51 52 53 53 52 50 49 48 49 50 50 51 51 50 49 48 46 47 47 48 48 48 49 50 50 50 49 49 50 51 52 54 56 58 60 60 61 57 54 55 55 57 60 58 57 56 54 56 59 60 62 61 59 59 58 56 53 49
52 52 52 51 51 51 51 53 54 55 56 56 58 58 58 60 56 52 51 50 51 52 50 50 52 51 51 51 52 53 53 54 54 56 57 56 55 53 52 52 52 53 54 54 54 53 49 47 46 48 47 46 48 49 49 49 49 50 52 52 53 54 57 60 60 60 60 57 56 57 59 65 66 61 60 59 57 59 61 63 66 65 64 64 63 62 61 59
53 53 53 53 53 53 54 55 56 57 58 59 60 61 62 62 57 53 53 52 52 52 52 53 55 54 54 54 55 56 56 57 57 57 59 59 59 58 56 55 54 55 57 57 58 57 55 51 48 51 51 50 51 51 50 51 52 53 53 53 54 56 57 57 56 57 58 57 57 59 64 69 69 66 66 66 65 66 67 67 67 67 66 67 67 66 65 64
54 55 56 56 56 55 55 56 57 58 59 60 61 62 63 62 58 57 57 56 55 56 54 55 56 56 57 57 58 58 59 61 61 60 61 62 62 61 60 58 57 57 57 59 60 61 62 58 54 57 60 57 57 57 55 56 57 58 58 58 60 58 55 56 57 59 60 61 64 67 71 75 74 72 73 72 71 71 70 69 68 67 68 68 67 67 66 65
57 57 57 58 57 57 57 57 58 59 60 61 62 63 63 62 60 61 61 60 61 60 58 57 57 58 59 59 60 60 62 63 64 64 64 65 65 64 63 62 60 59 59 60 60 60 62 62 59 61 64 63 62 62 61 60 60 63 64 64 63 61 59 61 65 65 63 66 70 73 77 79 77 77 75 73 72 71 69 69 69 69 70 69 67 66 66 66
59 59 59 58 58 59 60 60 60 61 62 63 65 65 65 64 63 63 63 63 63 62 61 61 61 61 61 62 62 62 64 66 66 67 67 68 68 68 66 65 64 64 64 63 61 58 60 62 61 61 64 64 64 64 64 65 65 67 67 65 64 64 64 63 63 63 63 67 71 72 75 76 75 76 76 72 69 68 67 67 67 67 67 67 67 66 65 66
61 62 61 60 61 63 63 64 65 65 67 69 69 68 67 66 64 63 63 63 64 65 65 66 66 66 66 65 64 64 66 68 69 70 70 71 72 72 71 69 69 70 69 69 68 66 66 67 64 62 64 66 66 66 67 68 68 66 63 59 57 57 59 59 60 62 64 68 71 71 71 73 73 73 73 71 68 67 66 66 66 67 65 65 66 64 63 63
65 66 65 64 65 66 66 67 67 68 71 74 74 72 70 70 68 67 67 67 67 69 70 71 71 71 71 71 69 69 70 71 72 73 73 74 75 75 74 73 74 74 73 72 73 72 71 72 70 67 68 70 70 70 70 67 62 57 53 50 49 51 55 59 63 65 66 68 70 71 72 73 72 69 67 67 67 67 67 67 67 67 65 63 63 63 61 59
67 68 68 67 67 68 67 68 69 70 73 76 76 76 76 75 73 72 73 73 72 72 73 73 73 75 76 75 74 74 74 74 74 74 75 76 76 76 76 76 76 76 76 76 76 77 76 76 76 74 73 75 74 71 68 61 53 49 50 51 53 57 61 65 69 69 69 71 73 73 74 73 68 63 61 63 65 66 65 62 60 59 60 61 61 60 59 57
67 68 67 67 67 68 69 70 71 72 74 75 76 76 76 75 75 75 76 76 75 75 74 73 74 75 75 75 76 75 75 76 76 76 77 77 76 76 76 76 76 76 76 76 74 74 72 71 71 69 68 68 65 59 56 54 51 51 56 61 64 67 68 69 73 73 73 74 74 74 76 74 65 58 57 59 61 61 56 52 52 53 56 58 58 58 59 57
67 67 66 67 68 68 69 71 72 73 74 75 74 73 72 72 73 74 75 75 76 76 75 75 75 74 74 74 74 74 75 76 77 77 77 77 76 75 74 73 73 73 72 71 68 67 66 67 69 69 68 67 63 58 57 59 61 66 72 76 76 74 70 69 71 71 70 71 71 71 76 76 65 57 55 55 56 56 54 54 56 58 59 58 57 58 58 56
68 67 67 68 68 69 71 72 72 73 74 72 71 70 71 71 72 72 72 73 74 74 75 75 74 74 74 73 73 73 74 76 77 76 76 77 76 74 72 71 71 71 72 71 70 70 70 71 73 76 77 77 75 72 72 73 75 77 79 77 74 71 67 66 66 63 62 65 65 67 74 74 66 58 54 52 52 54 56 58 61 62 62 61 60 57 53 51
71 70 70 70 70 71 73 73 72 73 73 71 71 72 71 72 72 70 70 71 72 72 73 73 73 73 73 72 72 72 72 74 76 76 74 75 75 73 71 70 70 71 72 72 72 72 72 73 74 75 77 80 80 80 79 79 78 77 75 71 69 69 68 68 66 64 66 67 64 67 71 69 62 56 54 53 53 55 56 57 60 63 63 63 61 57 53 52
72 72 72 73 73 73 74 73 72 73 73 73 73 72 71 72 71 69 69 71 72 72 73 73 72 72 72 72 72 72 72 73 75 75 73 73 73 71 70 69 69 70 71 71 71 72 73 74 74 73 75 78 81 80 79 78 77 76 75 73 72 72 73 74 74 75 80 80 77 79 79 72 65 60 56 53 52 53 53 52 54 57 59 60 59 58 59 61
72 71 71 72 73 74 74 73 73 74 73 73 73 73 72 72 71 69 70 71 72 73 73 73 72 72 73 73 73 73 73 72 74 74 74 73 73 72 72 71 71 72 72 72 72 72 74 75 76 76 75 75 78 79 77 76 77 77 77 77 76 75 75 77 79 82 85 87 89 90 89 86 83 77 71 64 59 56 53 51 51 55 61 66 65 64 66 66
70 70 70 70 71 72 72 71 71 72 71 71 72 73 72 71 71 71 71 72 72 72 72 73 72 72 74 73 73 74 74 73 74 74 74 74 74 74 73 73 74 74 74 74 73 73 74 76 76 76 75 74 76 78 78 77 78 76 73 73 73 74 75 76 80 82 81 84 89 88 86 89 89 86 83 79 76 74 73 71 72 75 79 83 82 78 74 71
70 70 70 70 71 71 71 70 70 70 70 70 72 73 72 72 72 72 72 72 72 71 72 73 73 72 73 73 73 74 74 73 73 73 73 73 73 73 72 72 73 73 73 74 74 74 75 76 75 75 76 75 75 77 76 77 78 76 74 72 71 72 74 75 79 80 79 82 85 82 80 83 84 81 80 79 78 80 83 86 90 92 93 94 93 91 89 87
70 70 70 71 72 71 70 71 70 71 71 71 72 73 72 72 72 71 71 72 72 72 72 72 72 71 71 71 71 72 71 71 72 72 72 72 72 73 72 71 71 71 71 71 71 71 72 73 73 73 74 74 74 74 73 72 74 74 72 70 70 72 75 77 80 81 81 82 81 77 76 77 75 73 73 73 72 74 77 81 85 89 91 91 90 88 87 87
71 70 70 71 71 70 70 71 71 71 71 71 72 73 71 71 70 69 70 71 71 71 71 72 72 72 71 70 70 70 69 68 68 68 69 68 67 66 65 64 63 63 62 63 64 65 67 70 72 72 74 74 72 72 72 71 72 72 71 70 70 72 74 76 76 75 76 79 79 77 78 77 74 71 70 70 70 70 72 75 78 81 83 85 85 85 84 85
71 71 71 71 71 70 70 71 71 72 72 71 71 71 70 70 71 70 70 70 70 69 70 71 73 72 71 70 69 69 68 66 65 65 65 63 61 60 59 57 56 57 58 60 62 64 66 69 69 69 72 73 70 69 68 67 66 67 67 68 70 71 71 70 69 70 73 77 77 77 79 82 83 82 79 77 77 78 79 80 81 82 83 84 84 83 83 83
72 73 72 72 72 71 70 71 71 71 72 71 71 71 70 70 70 70 70 71 70 70 69 70 70 70 70 68 67 67 67 67 67 67 65 63 62 63 65 64 64 65 66 66 66 66 66 68 67 66 69 72 70 68 67 66 68 70 70 70 70 70 70 69 69 71 74 77 79 81 84 86 88 86 83 81 79 77 75 74 73 74 77 78 77 77 75 74
Wind_Direction
259 261 263 264 266 268 269 271 272 274 276 277 278 279 280 280 280 281 281 282 283 283 284 285 286 287 289 290 291 293 294 294 294 294 296 296 296 296 296 296 296 296 297 297 298 298 298 298 298 298 298 297 297 297 297 296 296 297 299 300 298 297 300 300 298 298 297 297 298 296 296 297 294 295 298 297 296 296 294 289 291 294 292 293 296 298 299 300
261 263 264 266 267 269 270 271 272 273 274 275 276 277 278 278 279 280 280 281 281 282 283 283 284 284 285 287 288 290 291 291 291 291 294 295 294 294 294 295 295 295 296 296 297 297 296 297 296 296 296 295 295 294 294 293 293 295 297 297 292 293 298 297 295 296 295 294 294 293 293 293 290 293 297 295 293 293 288 283 288 292 289 287 289 291 292 294
261 263 264 266 267 269 270 271 272 272 273 274 274 274 275 276 276 277 278 279 279 280 280 281 281 282 283 284 285 286 288 288 288 289 291 292 292 292 293 294 294 295 295 295 295 295 295 295 295 295 294 294 293 293 292 290 291 293 295 294 289 292 296 294 293 294 294 293 293 291 290 290 288 292 293 293 294 289 282 283 288 290 285 282 283 286 288 288
261 262 263 265 266 268 269 270 271 272 273 273 273 273 274 274 275 275 276 276 277 277 277 278 278 279 281 282 283 285 286 287 287 288 288 288 289 290 291 292 292 293 293 294 294 294 293 294 294 293 293 293 292 293 292 290 290 294 295 292 289 291 294 293 292 292 293 292 291 288 287 288 288 290 290 292 294 285 280 283 286 286 283 281 281 281 283 282
262 263 264 265 266 267 269 270 271 272 273 273 273 273 273 273 274 274 274 274 274 274 275 275 276 277 278 279 281 283 285 286 286 287 287 287 288 289 289 290 290 291 292 293 293 293 293 294 293 292 292 291 292 292 291 289 291 293 293 291 289 289 293 292 291 292 291 290 289 286 285 286 286 288 288 292 295 286 281 283 284 285 283 282 278 272 272 274
262 263 264 265 266 267 269 270 271 272 273 273 273 274 273 273 273 273 273 272 272 272 273 273 274 274 275 277 278 280 284 285 284 285 286 287 288 289 290 291 291 292 294 294 294 295 295 295 294 292 290 291 292 291 290 290 291 293 293 291 289 290 294 292 290 293 291 290 288 285 285 286 285 285 288 294 297 286 281 283 284 285 284 283 280 272 266 267
263 264 264 265 266 267 269 270 270 271 272 272 273 273 273 273 272 272 272 272 272 272 272 272 272 273 274 274 276 279 284 283 281 283 285 286 288 288 290 290 291 293 294 294 296 296 296 297 296 292 292 293 293 292 292 292 293 296 294 289 288 292 295 291 291 293 291 290 289 287 286 285 285 285 290 299 297 283 280 283 285 285 285 285 281 274 268 265
263 264 264 265 266 267 268 269 269 270 270 271 271 271 272 272 272 272 272 272 272 272 273 272 273 273 273 275 276 280 283 280 280 283 285 286 287 287 288 288 290 292 293 294 296 296 297 296 293 292 293 294 293 294 293 292 294 296 293 289 290 294 294 291 292 292 290 290 289 286 285 284 284 286 294 303 290 278 279 283 285 286 288 287 281 275 271 267
261 262 263 264 265 265 266 267 267 268 269 269 270 270 270 271 271 271 272 272 272 272 272 273 274 274 275 277 277 283 284 279 281 285 285 286 286 285 286 287 288 290 291 294 295 295 294 292 291 292 292 291 292 293 291 292 294 294 292 291 293 293 292 293 294 292 290 288 286 284 282 282 283 288 300 303 280 275 279 283 286 288 289 287 282 277 273 271
261 261 261 262 263 264 264 265 266 267 268 268 269 269 269 270 270 270 270 271 270 270 271 272 273 274 276 276 279 284 280 278 282 285 285 284 283 283 284 285 287 289 291 293 293 292 291 290 290 290 289 289 289 289 289 291 292 292 291 291 293 292 291 294 295 292 289 285 283 282 280 280 283 291 301 291 275 277 281 284 287 289 290 287 285 281 276 274
262 262 262 262 263 263 264 265 266 267 267 268 269 269 269 269 269 270 270 271 271 271 271 272 273 274 274 276 280 281 276 278 283 283 282 282 281 281 282 283 284 286 289 291 290 290 289 289 288 288 287 287 287 288 288 289 289 289 289 290 291 289 290 295 293 288 283 281 282 281 281 283 287 295 300 281 272 276 281 286 288 288 288 288 290 288 283 279
262 263 263 263 264 264 265 265 266 266 267 268 269 269 269 269 270 270 271 272 272 273 274 274 274 275 275 276 280 278 276 280 282 281 280 278 278 280 281 281 281 282 285 286 287 287 287 286 286 285 285 286 287 288 287 288 287 288 289 288 288 287 289 293 287 281 279 281 283 283 283 286 291 298 296 279 271 273 280 286 287 285 286 288 292 292 290 286
263 264 265 265 265 265 265 265 266 266 267 267 268 269 269 270 270 270 271 272 273 274 275 275 276 276 275 276 278 276 277 278 278 278 277 277 278 279 279 279 278 279 280 282 283 283 283 283 284 283 284 286 288 289 289 288 287 289 289 288 290 288 287 286 278 275 278 282 285 284 284 288 293 295 288 278 274 274 279 284 285 285 285 286 289 291 293 291
263 264 265 265 265 265 265 265 266 266 266 267 268 268 269 269 269 270 270 271 272 272 273 273 274 275 275 275 275 275 277 277 275 274 274 276 278 278 277 277 276 276 277 278 279 280 281 281 281 281 282 285 288 289 290 288 287 290 289 291 294 290 284 277 272 273 278 282 283 283 283 286 288 287 284 279 275 275 279 281 283 285 286 286 286 288 289 290
263 264 264 265 265 265 266 265 265 265 266 266 267 267 268 269 269 269 269 269 270 270 271 271 272 273 273 273 274 275 276 276 275 274 274 276 276 276 276 276 275 275 275 275 276 278 279 279 279 280 281 283 287 290 289 287 287 292 293 293 293 287 282 277 275 281 285 283 281 280 280 281 281 281 280 276 275 276 277 278 280 283 286 287 287 287 286 284
263 263 264 265 265 265 265 266 266 266 266 265 266 267 267 268 268 268 268 268 268 269 270 270 271 273 273 274 274 275 276 277 276 275 276 275 275 276 276 275 275 274 274 274 275 276 277 277 277 278 279 281 286 289 288 286 289 295 293 290 287 283 283 283 285 291 292 286 281 278 277 277 278 279 275 271 272 274 274 276 278 280 283 287 287 286 284 280
262 263 264 264 264 265 265 265 266 266 266 266 266 266 266 267 267 267 268 268 268 269 269 270 272 273 275 277 276 276 278 278 277 276 275 275 276 276 275 275 275 274 274 274 274 275 276 276 276 276 277 279 285 288 286 287 291 291 286 285 284 284 286 288 291 295 293 286 281 278 276 276 277 276 273 269 268 270 273 275 278 279 282 284 284 281 280 279
262 262 263 264 264 265 265 265 265 266 266 266 266 266 266 267 267 267 268 268 269 269 270 272 273 274 276 278 279 279 279 279 278 277 276 276 276 275 275 275 275 274 274 274 274 275 274 274 274 275 276 280 286 286 283 285 288 286 283 282 283 284 286 289 293 297 293 285 281 279 279 279 279 275 272 270 267 269 274 277 280 281 281 281 279 276 276 277
262 262 263 263 264 264 265 265 265 266 266 266 266 266 266 267 267 268 268 269 269 271 272 273 274 275 277 279 280 280 279 279 279 278 279 279 277 276 275 274 274 274 273 273 274 273 272 272 272 273 277 284 286 281 279 281 283 282 282 281 282 285 285 289 294 296 293 286 281 281 282 283 283 281 279 277 274 272 275 279 281 280 278 276 273 272 274 276
261 262 262 263 264 264 265 265 266 266 267 267 267 267 266 267 267 268 269 270 271 272 273 274 275 275 278 279 280 279 279 279 280 280 280 280 279 277 276 276 275 274 273 273 272 271 271 271 272 275 281 284 279 275 275 277 279 279 280 281 283 284 286 290 292 292 293 287 282 283 283 284 286 288 288 285 282 280 280 280 279 277 276 273 271 272 274 275
261 262 262 263 263 264 265 265 266 266 266 267 267 268 267 267 267 268 268 270 271 273 274 275 276 277 278 279 279 279 279 279 281 282 281 279 279 278 278 277 276 274 274 272 270 269 270 271 273 277 281 277 272 272 274 276 276 277 278 280 281 283 286 289 289 291 289 284 283 285 284 285 287 288 289 289 289 290 290 286 282 279 275 273 273 275 275 273
261 262 262 263 263 264 265 266 266 267 267 267 267 268 268 268 268 268 268 269 270 273 275 276 277 278 279 279 279 279 280 281 283 283 281 279 278 278 276 275 275 275 273 271 270 272 272 272 274 276 274 271 271 273 274 274 274 275 277 279 280 283 286 285 286 287 284 281 284 286 285 285 285 286 288 290 292 295 294 290 285 279 275 277 280 281 277 274
262 262 263 263 263 264 264 265 266 267 267 268 268 269 269 270 270 270 271 271 270 271 274 276 278 278 279 279 279 280 281 283 284 282 280 278 277 277 276 275 275 274 273 274 275 275 273 273 274 273 271 271 272 273 273 273 273 274 276 278 279 282 285 283 283 283 281 281 283 285 285 283 284 284 286 289 293 295 295 293 289 285 285 288 288 286 282 276
263 264 264 264 264 264 264 265 265 266 267 268 268 269 270 270 271 272 272 272 272 272 273 274 275 276 277 278 279 281 282 283 282 280 278 277 277 277 276 276 275 273 275 276 275 272 272 274 274 272 272 273 272 272 272 272 273 274 276 277 278 281 282 281 282 284 282 281 283 284 282 280 283 283 282 288 292 291 290 290 291 294 296 295 292 289 287 283
264 264 264 265 265 265 265 265 266 266 267 268 269 269 270 271 271 272 272 273 273 274 274 273 272 274 276 277 279 280 281 281 280 279 278 278 278 278 277 276 276 275 276 274 271 269 270 273 274 274 274 273 272 272 272 273 274 275 275 275 277 278 279 279 281 282 282 283 283 284 281 279 281 282 285 291 289 285 284 285 289 294 297 296 295 292 289 286
263 263 264 264 265 266 266 266 266 267 267 268 268 269 270 271 271 272 273 275 275 275 276 274 273 273 275 277 278 279 279 278 277 276 277 278 278 278 277 276 276 275 273 272 269 267 269 272 273 273 273 272 272 272 273 275 275 275 276 276 276 277 277 278 279 279 280 282 283 283 282 280 278 281 290 294 289 284 283 286 290 294 295 295 296 294 290 287
263 264 264 264 265 266 266 267 267 267 267 268 269 269 270 271 272 273 274 275 275 275 275 275 275 276 276 277 276 276 276 276 276 275 276 277 278 278 276 275 275 273 271 269 268 267 269 270 269 269 270 271 272 274 276 275 275 276 278 278 277 276 276 276 277 278 279 279 280 280 282 283 283 286 295 295 289 285 287 291 294 295 295 291 292 295 293 288
264 264 264 264 265 266 267 267 267 267 268 268 269 270 270 271 272 273 273 274 274 273 273 275 278 279 279 277 275 275 275 275 275 275 275 276 276 276 275 273 272 270 269 268 267 269 270 268 268 268 268 269 272 274 274 273 274 276 277 277 277 277 276 277 277 278 278 277 276 276 280 286 288 289 294 292 288 290 294 296 297 299 298 291 291 295 294 290
263 264 264 265 266 267 267 267 267 268 268 268 269 269 270 270 270 271 271 272 273 273 274 277 279 279 279 278 277 276 274 274 274 273 274 275 276 276 274 272 270 269 269 268 267 267 268 268 268 268 268 269 271 271 271 271 273 274 274 275 277 277 278 278 278 277 277 275 275 278 283 289 289 284 285 285 288 293 297 300 302 303 300 296 294 293 292 291
263 263 264 266 267 267 267 268 268 269 269 269 269 270 270 270 270 270 269 270 272 274 277 279 278 278 278 278 278 277 275 274 273 272 273 275 277 277 275 273 271 269 268 268 268 267 266 266 266 267 268 269 269 268 269 270 271 271 273 274 274 275 276 276 275 275 274 274 277 281 283 287 286 281 280 286 291 295 298 302 303 301 300 299 298 295 291 290
263 261 263 265 266 265 266 267 269 270 270 270 270 270 271 271 270 270 270 272 274 274 276 277 278 279 279 278 279 279 279 278 276 274 272 271 272 274 276 275 274 272 268 267 267 266 265 264 264 265 266 267 268 269 269 269 270 270 271 271 271 272 273 273 274 273 273 275 281 282 281 282 280 278 282 288 293 296 300 301 300 300 300 299 298 297 293 288
261 261 263 265 266 266 266 267 269 270 270 271 270 270 270 269 269 271 273 274 273 272 273 275 277 278 278 279 280 281 281 281 280 279 275 272 269 270 273 275 276 276 273 270 269 266 264 264 265 266 266 268 269 270 270 269 270 269 268 268 269 270 271 271 272 272 272 276 280 280 279 277 275 276 281 286 290 294 296 296 296 298 299 298 297 296 294 290
262 262 264 265 267 267 265 265 265 265 266 267 268 269 268 267 269 271 271 270 270 271 273 274 275 276 277 278 280 280 281 282 282 282 280 278 276 274 274 274 275 276 275 274 273 271 267 265 267 270 270 270 271 272 272 271 270 269 269 269 269 269 270 271 271 272 274 277 277 275 274 275 277 280 282 285 287 289 289 289 291 294 295 295 295 294 293 291
263 263 264 265 266 266 266 265 265 264 264 265 266 267 266 267 269 270 268 267 267 269 269 271 273 274 274 276 277 279 280 280 280 281 281 280 280 279 278 276 274 275 275 275 274 274 271 266 266 272 273 272 273 275 276 275 273 272 273 272 272 273 275 276 276 276 277 275 273 270 270 274 278 281 283 284 286 286 287 287 288 290 291 292 292 292 292 292
262 263 264 265 266 265 266 266 266 266 265 265 264 263 264 267 268 268 267 266 266 267 267 268 269 270 271 273 274 276 277 278 278 278 278 278 278 278 278 277 276 276 276 276 275 275 274 269 267 272 275 275 276 276 277 277 276 275 274 274 275 278 280 280 279 278 277 274 271 270 272 274 278 279 281 283 285 286 287 288 289 289 289 289 289 289 289 290
259 260 262 264 264 264 263 263 263 263 264 264 263 261 263 266 266 266 266 266 267 269 269 268 268 268 268 269 270 272 274 275 275 275 276 276 276 276 276 277 277 276 275 276 276 276 275 273 270 272 275 276 277 277 277 277 277 276 275 275 278 280 280 279 278 277 275 273 271 271 273 275 277 278 279 280 282 284 286 287 288 288 287 287 287 287 287 286
259 259 260 262 264 265 264 264 264 265 266 267 265 263 263 264 264 265 267 268 271 272 273 273 270 268 268 267 268 270 272 272 273 274 274 274 274 275 275 275 275 275 275 276 276 275 274 274 272 273 275 275 276 277 276 277 277 278 277 278 279 279 277 276 276 276 274 273 273 273 273 274 276 276 278 280 282 283 284 284 283 283 284 285 285 285 284 283
265 264 263 264 267 269 268 268 268 269 269 269 267 265 265 266 266 268 270 272 274 275 275 275 273 272 272 270 270 270 272 273 273 273 273 273 273 274 274 274 274 275 276 278 278 276 276 277 274 271 273 275 276 276 277 278 279 279 279 277 274 272 272 273 273 274 275 275 276 276 275 274 274 276 279 282 283 283 282 281 281 281 282 283 282 282 280 280
268 268 267 268 271 271 271 272 272 271 271 271 270 269 269 269 270 270 272 274 275 275 275 275 275 275 274 274 274 273 274 274 273 273 273 273 273 273 273 273 273 274 275 277 279 279 279 280 278 274 273 275 276 276 278 280 279 276 272 268 265 265 268 272 273 274 275 276 276 277 276 275 276 277 278 280 281 281 281 281 281 281 282 280 278 279 279 280
269 269 269 270 271 272 272 272 271 271 272 273 274 274 273 273 272 273 275 276 277 276 276 276 276 275 275 276 276 276 276 275 274 274 274 273 273 273 272 273 273 274 275 276 279 280 281 282 283 280 276 275 276 277 279 277 272 265 264 266 269 272 274 276 276 276 277 278 279 278 277 276 277 278 278 279 280 281 282 281 280 278 276 274 274 276 278 280
270 270 271 271 271 271 271 271 270 271 273 274 275 275 275 275 275 275 275 276 277 277 277 277 277 277 277 277 277 277 276 276 275 274 274 273 273 273 273 274 276 277 278 279 279 280 282 283 284 282 279 277 277 276 273 268 262 263 268 272 276 279 280 278 278 279 281 281 281 279 277 275 277 279 280 280 280 279 277 275 274 273 272 271 272 274 276 279
271 271 271 270 270 270 270 269 270 271 271 273 274 275 276 275 275 274 274 274 275 275 276 276 277 277 277 277 276 276 275 275 275 274 275 275 274 275 275 275 277 278 278 278 277 278 278 277 277 277 276 275 273 269 265 264 265 268 271 275 278 280 281 280 280 283 282 279 276 274 273 273 275 280 281 279 275 271 267 266 269 269 269 270 271 272 275 275
272 272 271 270 270 269 269 269 270 271 272 273 274 273 273 273 273 273 274 274 274 274 274 274 275 275 275 275 274 274 274 274 274 273 274 274 274 275 276 276 276 276 275 275 275 276 275 274 273 274 274 273 272 270 268 269 271 272 273 276 278 279 279 278 279 280 276 272 270 270 270 271 273 277 275 271 266 263 261 263 264 264 264 266 268 269 269 267
272 272 272 271 270 269 269 270 271 272 272 272 272 271 271 271 271 272 273 273 272 273 273 273 273 273 273 273 273 273 272 272 272 272 273 273 274 274 275 275 274 274 274 275 275 275 273 273 274 274 274 274 274 274 273 274 275 275 275 275 273 273 273 274 275 275 273 272 271 271 270 270 272 273 268 263 260 258 257 257 258 259 259 260 263 265 263 263
271 271 271 271 270 270 270 271 271 271 271 271 271 271 271 271 271 272 271 271 271 272 272 272 272 272 272 272 272 272 272 272 273 273 273 273 274 273 273 272 272 273 273 273 273 273 273 273 273 273 273 275 275 276 276 277 276 275 274 273 271 270 270 270 271 271 272 272 272 272 272 273 273 271 266 262 258 255 253 251 253 256 258 257 258 262 265 266
270 270 270 270 270 269 270 271 271 270 271 271 271 270 270 271 271 271 270 271 271 272 272 272 272 272 272 272 272 272 272 272 273 274 274 273 273 273 273 273 272 272 272 272 272 272 272 272 272 272 272 273 275 276 277 277 276 275 275 275 275 273 272 272 270 269 271 272 272 271 273 275 275 273 270 267 263 260 257 253 253 256 261 263 262 264 266 266
270 270 270 269 269 269 270 271 271 271 272 272 271 271 271 271 271 271 271 271 272 271 271 271 272 272 272 272 272 272 272 272 272 273 274 274 273 273 273 273 273 272 272 272 271 271 270 270 271 271 271 272 274 275 276 275 274 274 274 275 275 275 274 273 271 271 273 273 272 273 274 275 275 275 273 272 269 268 266 264 263 263 264 265 266 265 265 265
270 270 270 269 269 271 272 271 271 271 271 271 272 272 272 272 273 273 273 272 271 270 270 270 270 270 271 271 271 271 272 272 272 272 273 273 273 273 273 272 272 272 271 271 271 271 270 270 271 271 271 272 272 272 273 272 272 272 272 272 272 272 271 271 272 273 274 273 274 277 277 276 276 276 275 274 272 269 268 267 267 268 268 268 268 268 269 269
271 271 271 271 271 271 272 271 271 271 271 271 271 271 272 273 273 273 273 272 271 271 271 271 270 270 270 270 270 270 271 271 271 271 272 272 273 273 272 271 270 270 270 269 269 270 270 271 272 272 272 272 271 271 270 270 270 270 271 271 270 269 270 270 271 272 272 273 275 276 275 274 276 277 276 275 273 270 269 268 268 268 269 270 271 271 272 272
272 271 271 271 271 271 271 271 271 271 271 271 271 272 273 272 272 271 271 271 271 271 270 270 270 270 270 270 270 271 271 272 271 271 272 272 273 273 272 270 268 267 266 266 267 268 270 272 273 274 275 274 273 273 272 271 270 270 268 268 268 268 269 269 269 270 270 271 272 271 272 274 275 274 273 273 273 273 272 272 271 270 270 270 271 272 272 272
273 272 272 272 271 271 271 271 271 271 271 271 272 273 272 271 271 271 270 270 270 269 269 270 270 271 271 271 271 272 273 273 272 272 272 271 271 271 270 267 264 263 264 266 268 269 271 274 275 276 276 275 275 275 275 275 273 269 268 268 268 268 268 267 267 268 268 270 271 271 272 274 275 274 274 274 275 276 276 276 276 275 273 273 272 272 272 272
273 273 273 272 272 272 272 271 271 271 271 272 272 271 270 270 270 270 270 269 269 269 270 270 271 272 272 272 272 272 272 272 272 271 271 269 267 266 266 265 265 265 266 268 269 269 269 270 271 271 271 272 272 272 273 272 268 265 267 270 269 266 265 265 266 267 268 270 272 272 273 275 277 277 277 277 278 279 278 277 276 275 273 272 272 270 269 268
Height
5884 5884 5884 5885 5885 5885 5885 5885 5885 5885 5885 5885 5885 5886 5886 5886 5886 5886 5886 5886 5886 5885 5885 5885 5885 5885 5884 5884 5884 5884 5884 5883 5883 5883 5883 5883 5882 5882 5882 5881 5881 5880 5880 5879 5879 5878 5877 5877 5876 5875 5875 5874 5874 5873 5872 5871 5871 5870 5870 5869 5867 5867 5867 5867 5866 5865 5865 5864 5863 5863 5862 5862 5861 5860 5861 5861 5859 5859 5858 5857 5856 5856 5855 5854 5853 5853 5852 5852
5882 5882 5883 5883 5883 5883 5883 5883 5883 5883 5883 5883 5884 5883 5884 5884 5884 5884 5884 5884 5883 5883 5883 5883 5883 5883 5883 5882 5882 5882 5882 5881 5881 5881 5881 5881 5880 5880 5880 5879 5879 5878 5878 5877 5877 5876 5875 5875 5874 5874 5873 5872 5872 5871 5870 5869 5869 5869 5868 5868 5865 5864 5865 5864 5863 5863 5862 5862 5861 5860 5859 5859 5858 5858 5859 5858 5857 5856 5856 5854 5853 5854 5853 5853 5851 5850 5850 5849
5880 5880 5880 5880 5881 5881 5881 5881 5881 5881 5881 5881 5881 5881 5881 5881 5881 5881 5881 5881 5881 5881 5880 5880 5880 5880 5880 5880 5880 5880 5880 5879 5879 5879 5879 5878 5878 5877 5877 5877 5876 5876 5875 5875 5875 5874 5873 5873 5872 5871 5870 5870 5869 5868 5868 5867 5867 5867 5866 5866 5863 5862 5863 5861 5860 5860 5859 5859 5859 5857 5857 5856 5856 5856 5856 5855 5855 5853 5852 5851 5851 5851 5851 5850 5850 5849 5848 5847
5877 5878 5878 5878 5878 5878 5878 5878 5879 5879 5879 5879 5879 5879 5879 5879 5879 5879 5879 5879 5878 5878 5878 5878 5877 5877 5877 5877 5878 5878 5877 5876 5876 5876 5876 5876 5875 5875 5874 5874 5874 5873 5873 5872 5872 5872 5871 5871 5870 5868 5868 5867 5866 5866 5865 5863 5864 5865 5864 5863 5860 5859 5861 5859 5857 5857 5856 5856 5856 5854 5854 5854 5853 5853 5853 5853 5852 5850 5848 5849 5848 5848 5848 5847 5848 5847 5846 5845
5874 5875 5875 5875 5875 5876 5876 5876 5876 5876 5876 5876 5876 5876 5876 5876 5876 5876 5876 5876 5876 5875 5875 5875 5875 5875 5875 5875 5875 5875 5875 5873 5873 5873 5873 5873 5872 5872 5872 5871 5871 5871 5870 5870 5869 5869 5868 5868 5867 5866 5865 5864 5863 5863 5862 5860 5860 5863 5862 5860 5857 5857 5859 5857 5853 5854 5853 5852 5852 5850 5850 5851 5850 5850 5850 5850 5850 5847 5844 5845 5845 5845 5844 5844 5845 5844 5843 5842
5872 5872 5872 5872 5873 5873 5873 5873 5873 5873 5873 5873 5873 5873 5873 5873 5873 5873 5873 5873 5873 5872 5872 5872 5872 5872 5872 5872 5872 5872 5872 5871 5870 5870 5870 5870 5870 5869 5869 5868 5868 5868 5868 5867 5866 5866 5865 5865 5864 5863 5862 5862 5861 5860 5859 5857 5857 5859 5860 5857 5854 5854 5856 5855 5851 5850 5850 5848 5848 5846 5847 5848 5846 5847 5847 5847 5847 5843 5840 5841 5842 5842 5840 5841 5841 5841 5840 5838
5869 5869 5869 5870 5870 5870 5870 5870 5870 5870 5870 5870 5870 5870 5870 5870 5870 5870 5870 5870 5870 5869 5869 5869 5869 5869 5869 5870 5870 5870 5871 5868 5866 5868 5868 5867 5867 5866 5866 5865 5865 5865 5865 5864 5863 5863 5862 5861 5861 5859 5859 5859 5858 5857 5855 5854 5853 5855 5856 5854 5851 5851 5852 5851 5849 5848 5846 5844 5844 5842 5843 5844 5843 5843 5845 5846 5844 5839 5836 5837 5838 5838 5837 5837 5838 5837 5836 5835
5866 5866 5866 5866 5867 5867 5867 5867 5867 5867 5867 5867 5867 5867 5867 5867 5867 5867 5867 5867 5867 5866 5866 5866 5866 5866 5866 5868 5868 5869 5869 5864 5863 5865 5865 5864 5864 5864 5863 5863 5863 5862 5861 5861 5860 5859 5859 5858 5857 5855 5856 5856 5855 5855 5853 5851 5851 5851 5852 5851 5850 5849 5848 5848 5847 5845 5843 5841 5840 5838 5839 5841 5839 5839 5843 5844 5840 5835 5832 5833 5834 5834 5834 5834 5833 5832 5832 5831
5862 5862 5863 5863 5863 5864 5864 5864 5864 5864 5863 5863 5863 5863 5864 5864 5864 5864 5864 5864 5864 5864 5863 5863 5863 5863 5864 5865 5865 5868 5866 5861 5861 5862 5862 5861 5861 5861 5860 5860 5860 5860 5859 5858 5857 5856 5856 5854 5853 5852 5852 5852 5852 5852 5850 5848 5848 5848 5847 5847 5848 5847 5846 5845 5844 5842 5840 5839 5837 5834 5835 5837 5836 5836 5840 5842 5836 5831 5829 5830 5830 5830 5830 5830 5829 5828 5827 5827
5858 5859 5859 5860 5860 5860 5860 5860 5860 5860 5860 5860 5860 5860 5860 5860 5861 5861 5861 5861 5860 5861 5860 5860 5860 5860 5861 5861 5863 5866 5862 5858 5859 5860 5859 5858 5857 5857 5857 5857 5857 5856 5856 5855 5854 5853 5852 5850 5849 5848 5847 5848 5848 5848 5847 5845 5844 5844 5843 5843 5844 5843 5843 5843 5841 5839 5836 5835 5833 5829 5829 5832 5832 5833 5838 5838 5831 5827 5826 5827 5827 5827 5827 5826 5825 5824 5823 5824
5855 5855 5856 5856 5857 5857 5857 5857 5857 5857 5857 5856 5856 5856 5856 5857 5857 5857 5857 5857 5857 5857 5857 5856 5856 5857 5858 5859 5862 5863 5858 5856 5857 5857 5855 5854 5854 5854 5854 5855 5854 5853 5853 5852 5851 5850 5849 5847 5846 5844 5843 5843 5845 5844 5843 5842 5840 5840 5838 5839 5841 5839 5840 5841 5838 5836 5833 5831 5830 5825 5823 5827 5830 5832 5835 5834 5828 5824 5822 5824 5824 5824 5823 5822 5821 5820 5820 5820
5852 5852 5852 5853 5853 5854 5854 5854 5854 5853 5853 5853 5853 5852 5852 5853 5853 5854 5854 5854 5853 5854 5854 5853 5852 5853 5853 5857 5860 5858 5855 5855 5855 5853 5851 5850 5850 5851 5851 5851 5851 5850 5850 5849 5848 5846 5845 5843 5842 5840 5839 5839 5841 5841 5839 5839 5837 5836 5835 5834 5837 5835 5836 5839 5834 5831 5829 5828 5827 5821 5816 5821 5827 5829 5831 5830 5825 5822 5820 5821 5821 5820 5820 5819 5818 5816 5816 5817
5848 5848 5849 5849 5850 5850 5850 5850 5850 5850 5849 5849 5849 5848 5848 5849 5849 5850 5850 5850 5849 5850 5850 5848 5848 5848 5849 5854 5856 5854 5853 5853 5852 5850 5847 5846 5848 5849 5848 5848 5847 5847 5846 5845 5844 5843 5841 5839 5837 5836 5836 5835 5837 5837 5835 5835 5833 5833 5831 5829 5832 5831 5832 5835 5830 5827 5826 5824 5823 5816 5810 5816 5824 5826 5827 5825 5821 5819 5817 5818 5818 5816 5816 5815 5814 5813 5813 5813
5845 5844 5845 5845 5845 5846 5846 5846 5846 5846 5846 5845 5845 5844 5844 5845 5845 5846 5846 5845 5845 5845 5845 5844 5844 5843 5844 5850 5853 5850 5850 5849 5848 5846 5843 5844 5845 5845 5845 5844 5844 5843 5842 5841 5840 5839 5837 5835 5833 5832 5832 5832 5834 5833 5831 5830 5829 5830 5827 5825 5827 5824 5826 5830 5825 5823 5824 5822 5819 5813 5804 5809 5819 5822 5823 5820 5816 5815 5813 5814 5814 5812 5812 5811 5811 5810 5810 5809
5840 5841 5841 5841 5841 5841 5841 5842 5842 5842 5842 5841 5841 5841 5840 5840 5841 5841 5841 5841 5841 5840 5840 5839 5839 5839 5839 5845 5849 5847 5846 5845 5843 5842 5841 5841 5841 5840 5841 5840 5839 5839 5838 5837 5836 5835 5833 5831 5828 5827 5828 5830 5831 5830 5827 5824 5825 5827 5822 5821 5822 5817 5817 5822 5823 5822 5822 5819 5815 5809 5801 5803 5812 5817 5819 5816 5812 5811 5809 5809 5810 5809 5809 5808 5807 5807 5807 5807
5836 5836 5836 5836 5837 5837 5837 5837 5837 5838 5837 5837 5837 5836 5836 5836 5836 5836 5836 5837 5836 5835 5835 5834 5835 5834 5833 5840 5844 5843 5842 5841 5839 5837 5837 5837 5837 5837 5837 5835 5835 5834 5833 5832 5831 5830 5829 5826 5823 5823 5824 5827 5829 5827 5822 5817 5822 5825 5818 5814 5815 5812 5809 5813 5820 5822 5819 5814 5809 5804 5797 5796 5805 5812 5813 5812 5809 5807 5804 5805 5806 5806 5806 5805 5804 5803 5803 5803
5832 5832 5832 5832 5832 5832 5833 5833 5833 5833 5833 5833 5833 5832 5832 5831 5831 5831 5831 5832 5831 5831 5830 5830 5831 5829 5828 5834 5838 5839 5838 5836 5834 5834 5833 5833 5833 5833 5832 5830 5830 5829 5828 5827 5827 5826 5824 5821 5818 5818 5820 5823 5827 5825 5816 5812 5818 5820 5814 5808 5807 5807 5805 5806 5813 5819 5815 5809 5803 5797 5792 5792 5799 5805 5806 5806 5805 5802 5800 5801 5802 5802 5803 5803 5801 5800 5800 5799
5827 5827 5827 5827 5827 5827 5828 5828 5828 5829 5828 5828 5828 5828 5827 5826 5826 5826 5827 5827 5826 5826 5825 5826 5826 5824 5825 5829 5830 5832 5833 5831 5830 5830 5829 5829 5829 5828 5827 5826 5825 5824 5823 5822 5823 5822 5819 5816 5813 5813 5816 5821 5825 5820 5811 5809 5812 5811 5808 5804 5801 5801 5802 5802 5807 5812 5810 5803 5797 5791 5787 5788 5793 5797 5800 5801 5800 5798 5797 5797 5798 5799 5799 5799 5797 5796 5796 5795
5821 5822 5822 5822 5822 5822 5823 5823 5823 5824 5824 5823 5823 5824 5823 5822 5821 5821 5822 5822 5822 5821 5820 5821 5822 5820 5820 5824 5825 5825 5825 5825 5826 5825 5826 5826 5825 5824 5822 5821 5820 5819 5818 5818 5818 5816 5813 5810 5807 5808 5813 5819 5820 5813 5807 5806 5807 5804 5801 5799 5797 5796 5796 5800 5803 5805 5803 5795 5790 5788 5783 5783 5786 5789 5794 5797 5795 5794 5794 5795 5795 5795 5794 5794 5792 5791 5791 5791
5816 5816 5817 5817 5817 5817 5817 5818 5818 5819 5819 5818 5818 5818 5818 5817 5817 5816 5816 5816 5817 5817 5816 5815 5816 5816 5817 5818 5818 5817 5818 5819 5820 5821 5822 5821 5820 5819 5818 5816 5815 5814 5813 5813 5812 5809 5807 5804 5802 5806 5813 5815 5811 5806 5802 5802 5802 5798 5796 5793 5793 5791 5791 5796 5798 5798 5798 5785 5781 5784 5780 5778 5781 5783 5788 5791 5790 5790 5792 5792 5791 5790 5789 5787 5786 5786 5787 5786
5811 5811 5811 5812 5812 5812 5812 5812 5813 5813 5813 5813 5813 5813 5813 5812 5812 5811 5811 5811 5812 5811 5811 5811 5810 5811 5814 5813 5811 5811 5811 5813 5815 5817 5816 5816 5815 5814 5813 5812 5810 5808 5809 5807 5804 5803 5802 5798 5799 5806 5810 5807 5802 5800 5799 5799 5797 5793 5791 5789 5788 5787 5787 5791 5792 5793 5792 5779 5773 5778 5774 5773 5777 5778 5781 5785 5785 5786 5787 5787 5786 5785 5783 5781 5781 5782 5783 5782
5805 5805 5805 5806 5806 5806 5807 5807 5807 5807 5808 5808 5808 5808 5807 5807 5806 5805 5805 5805 5808 5807 5805 5806 5805 5805 5807 5807 5805 5805 5804 5807 5810 5811 5810 5810 5810 5808 5808 5806 5805 5804 5803 5800 5799 5800 5797 5793 5798 5803 5801 5798 5796 5797 5796 5793 5791 5789 5788 5786 5783 5785 5784 5783 5786 5787 5784 5775 5770 5772 5767 5766 5771 5773 5775 5779 5782 5782 5781 5781 5781 5780 5778 5778 5778 5779 5779 5778
5799 5799 5800 5800 5800 5801 5801 5801 5801 5801 5802 5802 5803 5802 5802 5801 5801 5800 5799 5798 5801 5804 5802 5802 5800 5799 5800 5800 5799 5800 5800 5802 5804 5804 5804 5803 5803 5802 5801 5801 5799 5798 5796 5796 5797 5795 5789 5789 5795 5796 5793 5792 5792 5792 5790 5787 5786 5785 5784 5782 5780 5783 5781 5776 5777 5778 5777 5772 5767 5767 5762 5758 5764 5768 5770 5775 5777 5778 5777 5775 5776 5776 5776 5776 5776 5774 5773 5773
5793 5794 5794 5794 5794 5794 5795 5795 5795 5795 5796 5796 5796 5796 5796 5796 5795 5795 5794 5792 5792 5797 5798 5798 5795 5793 5794 5794 5794 5795 5796 5797 5797 5797 5796 5795 5795 5795 5795 5794 5792 5792 5792 5793 5792 5787 5783 5786 5789 5789 5787 5787 5786 5785 5784 5781 5781 5781 5780 5779 5777 5779 5777 5772 5770 5769 5769 5768 5766 5765 5756 5751 5756 5760 5764 5772 5774 5773 5773 5770 5771 5774 5774 5773 5773 5770 5768 5767
5787 5787 5788 5788 5787 5788 5788 5789 5789 5790 5790 5790 5790 5790 5790 5790 5790 5789 5789 5787 5786 5789 5791 5791 5790 5789 5788 5789 5790 5790 5791 5791 5791 5789 5789 5788 5788 5787 5788 5787 5786 5787 5788 5787 5785 5780 5780 5783 5783 5783 5782 5781 5779 5778 5778 5777 5776 5776 5775 5775 5775 5774 5771 5769 5767 5763 5760 5760 5761 5761 5753 5747 5749 5752 5758 5767 5768 5767 5767 5766 5768 5771 5770 5768 5768 5767 5764 5763
5780 5781 5781 5781 5781 5782 5782 5782 5783 5783 5784 5784 5783 5783 5783 5783 5784 5784 5783 5782 5780 5782 5781 5780 5783 5785 5785 5786 5785 5785 5785 5785 5784 5783 5782 5782 5781 5780 5780 5780 5780 5782 5781 5779 5778 5774 5776 5780 5779 5777 5776 5774 5773 5773 5774 5773 5770 5769 5769 5771 5771 5769 5767 5765 5763 5760 5757 5755 5754 5753 5750 5745 5744 5747 5754 5759 5759 5758 5760 5761 5764 5766 5766 5764 5763 5763 5762 5759
5773 5774 5774 5775 5775 5775 5775 5775 5776 5777 5777 5777 5777 5777 5777 5778 5778 5778 5779 5776 5774 5774 5771 5769 5774 5779 5781 5781 5780 5780 5778 5778 5778 5778 5777 5775 5774 5773 5773 5774 5774 5775 5774 5772 5770 5770 5772 5774 5773 5772 5770 5768 5767 5769 5770 5768 5763 5763 5765 5765 5764 5763 5763 5761 5759 5757 5754 5752 5749 5746 5745 5743 5741 5744 5748 5748 5748 5748 5752 5756 5757 5759 5761 5760 5758 5758 5757 5756
5767 5767 5767 5768 5769 5769 5769 5768 5768 5769 5770 5770 5771 5771 5771 5772 5772 5773 5773 5770 5766 5765 5763 5764 5767 5771 5773 5773 5772 5773 5772 5771 5771 5770 5770 5769 5768 5767 5767 5767 5767 5767 5767 5765 5764 5767 5767 5766 5767 5766 5764 5764 5764 5765 5764 5760 5757 5759 5760 5757 5756 5756 5756 5756 5755 5753 5750 5748 5745 5741 5742 5743 5743 5743 5742 5738 5737 5739 5745 5749 5751 5752 5754 5755 5755 5752 5751 5751
5761 5761 5761 5761 5763 5763 5763 5761 5761 5762 5763 5763 5764 5764 5765 5766 5766 5768 5767 5762 5757 5756 5758 5761 5761 5763 5764 5763 5764 5765 5764 5764 5764 5763 5763 5762 5761 5761 5761 5761 5760 5760 5760 5758 5759 5762 5761 5760 5760 5758 5758 5759 5760 5759 5756 5754 5753 5754 5753 5751 5750 5749 5749 5749 5748 5747 5746 5743 5740 5739 5741 5743 5741 5739 5737 5733 5732 5733 5737 5741 5743 5745 5745 5747 5750 5750 5746 5744
5755 5755 5755 5756 5757 5757 5757 5755 5754 5756 5756 5755 5756 5757 5758 5758 5760 5761 5758 5753 5751 5752 5755 5755 5753 5755 5756 5756 5756 5756 5756 5757 5757 5757 5756 5755 5755 5754 5754 5754 5752 5753 5753 5752 5753 5756 5755 5754 5753 5752 5752 5753 5752 5750 5750 5749 5748 5747 5747 5746 5744 5743 5742 5741 5740 5740 5738 5737 5739 5739 5740 5741 5737 5732 5730 5730 5730 5729 5731 5734 5735 5735 5736 5737 5740 5744 5744 5740
5749 5749 5749 5750 5751 5751 5752 5751 5749 5750 5749 5749 5750 5750 5750 5751 5753 5753 5747 5747 5749 5749 5751 5748 5745 5748 5748 5748 5749 5748 5748 5749 5749 5750 5750 5751 5750 5748 5747 5747 5745 5745 5746 5745 5746 5748 5748 5747 5747 5747 5746 5745 5744 5743 5744 5743 5742 5741 5741 5740 5737 5736 5735 5733 5732 5732 5729 5731 5737 5736 5735 5737 5732 5726 5727 5729 5729 5726 5726 5727 5726 5727 5728 5727 5729 5733 5737 5737
5743 5742 5743 5744 5744 5745 5746 5746 5745 5745 5744 5743 5743 5744 5744 5743 5744 5745 5743 5744 5743 5742 5746 5744 5741 5742 5741 5741 5743 5741 5741 5741 5741 5741 5742 5743 5744 5744 5743 5741 5740 5738 5737 5739 5739 5740 5742 5742 5741 5741 5741 5741 5739 5737 5737 5737 5736 5735 5734 5733 5730 5729 5728 5725 5724 5723 5722 5729 5734 5730 5728 5727 5723 5723 5726 5729 5729 5727 5724 5721 5719 5720 5720 5720 5720 5721 5724 5727
5737 5737 5737 5738 5739 5739 5739 5739 5739 5739 5738 5737 5737 5737 5737 5735 5737 5740 5740 5740 5738 5737 5740 5738 5736 5737 5736 5736 5736 5734 5734 5734 5733 5732 5732 5733 5735 5737 5738 5736 5736 5733 5731 5732 5731 5732 5735 5737 5737 5735 5735 5736 5733 5731 5730 5730 5730 5728 5727 5726 5723 5722 5720 5716 5717 5716 5717 5725 5726 5722 5719 5716 5716 5721 5723 5725 5727 5725 5723 5720 5716 5715 5714 5712 5712 5711 5711 5714
5731 5731 5732 5732 5733 5734 5733 5732 5732 5732 5730 5730 5731 5730 5729 5728 5732 5735 5735 5736 5734 5733 5734 5732 5730 5731 5730 5730 5730 5728 5727 5726 5727 5726 5724 5724 5725 5727 5730 5730 5730 5729 5727 5726 5725 5726 5725 5729 5733 5729 5727 5729 5727 5725 5724 5723 5723 5721 5722 5719 5715 5717 5713 5708 5710 5710 5711 5714 5713 5711 5708 5707 5712 5716 5716 5718 5721 5719 5717 5716 5715 5714 5712 5708 5705 5704 5703 5702
5725 5725 5726 5727 5727 5727 5727 5725 5725 5724 5721 5722 5722 5720 5721 5724 5728 5729 5729 5730 5727 5726 5728 5727 5725 5725 5724 5725 5724 5723 5721 5718 5719 5719 5717 5718 5718 5719 5722 5722 5724 5723 5720 5718 5719 5720 5716 5721 5728 5721 5717 5721 5721 5719 5718 5715 5714 5714 5715 5712 5709 5713 5710 5703 5701 5702 5702 5700 5700 5701 5697 5698 5707 5710 5710 5712 5712 5712 5710 5708 5709 5708 5706 5704 5701 5700 5697 5696
5718 5718 5719 5721 5721 5720 5718 5717 5717 5715 5712 5713 5711 5711 5716 5720 5722 5722 5721 5722 5720 5718 5719 5719 5719 5719 5718 5718 5718 5717 5715 5711 5711 5711 5710 5710 5710 5713 5716 5716 5716 5716 5714 5711 5711 5711 5707 5711 5720 5715 5709 5712 5712 5711 5711 5708 5706 5706 5706 5705 5705 5706 5703 5696 5690 5692 5693 5685 5686 5694 5690 5691 5698 5699 5704 5708 5706 5706 5704 5703 5703 5699 5697 5696 5695 5694 5693 5691
5709 5710 5712 5714 5713 5710 5709 5709 5708 5705 5703 5702 5700 5704 5712 5714 5715 5715 5714 5714 5712 5711 5710 5709 5710 5711 5710 5710 5712 5712 5708 5705 5704 5703 5703 5703 5700 5705 5710 5709 5708 5708 5707 5705 5703 5703 5699 5699 5710 5711 5703 5702 5704 5703 5702 5701 5698 5696 5697 5700 5700 5695 5692 5690 5682 5680 5681 5672 5672 5682 5683 5686 5690 5689 5696 5701 5700 5701 5699 5696 5695 5692 5691 5690 5688 5688 5687 5684
5701 5701 5704 5707 5704 5700 5700 5700 5698 5696 5693 5691 5693 5700 5705 5706 5709 5710 5707 5706 5704 5702 5701 5700 5701 5702 5701 5703 5706 5706 5701 5697 5698 5696 5696 5695 5693 5697 5702 5701 5700 5699 5700 5697 5692 5693 5691 5687 5696 5705 5699 5692 5695 5696 5694 5693 5691 5687 5688 5691 5690 5684 5682 5683 5675 5671 5671 5664 5661 5667 5671 5676 5682 5686 5691 5692 5691 5692 5689 5687 5686 5684 5684 5683 5681 5681 5679 5677
5693 5693 5697 5700 5695 5691 5691 5690 5688 5687 5683 5682 5688 5694 5697 5699 5702 5702 5699 5698 5696 5693 5691 5691 5692 5691 5692 5695 5696 5696 5694 5691 5689 5688 5688 5688 5686 5689 5693 5692 5691 5692 5692 5689 5682 5682 5683 5675 5677 5693 5695 5685 5685 5688 5686 5684 5683 5679 5678 5678 5678 5677 5675 5672 5668 5664 5662 5657 5653 5654 5655 5660 5673 5684 5689 5686 5682 5681 5679 5678 5677 5676 5676 5675 5673 5671 5669 5668
5685 5685 5690 5692 5686 5683 5683 5680 5678 5677 5674 5675 5682 5685 5687 5689 5691 5693 5691 5688 5685 5683 5681 5682 5683 5681 5682 5686 5686 5685 5685 5682 5681 5680 5678 5679 5680 5682 5684 5684 5684 5684 5682 5680 5675 5672 5673 5666 5662 5674 5682 5676 5676 5680 5678 5676 5675 5671 5669 5668 5668 5668 5666 5661 5656 5657 5657 5649 5645 5643 5639 5643 5662 5677 5682 5680 5675 5672 5671 5669 5668 5668 5668 5665 5664 5662 5660 5660
5676 5677 5683 5684 5677 5675 5674 5670 5669 5670 5668 5669 5675 5676 5677 5679 5681 5683 5682 5677 5674 5673 5671 5671 5673 5673 5673 5675 5676 5676 5673 5670 5672 5672 5669 5671 5673 5673 5676 5677 5676 5675 5672 5670 5668 5665 5664 5659 5654 5658 5664 5666 5670 5673 5670 5666 5666 5664 5659 5658 5659 5659 5657 5651 5644 5647 5650 5641 5635 5633 5624 5626 5648 5667 5673 5673 5668 5665 5664 5661 5660 5660 5658 5656 5656 5654 5653 5652
5668 5670 5674 5673 5668 5667 5665 5660 5661 5663 5661 5663 5669 5669 5668 5669 5671 5673 5672 5669 5666 5664 5663 5662 5664 5665 5664 5664 5666 5666 5662 5659 5661 5662 5660 5663 5664 5665 5669 5671 5668 5666 5663 5659 5659 5660 5657 5652 5647 5648 5651 5655 5660 5665 5663 5659 5658 5655 5650 5649 5651 5650 5649 5644 5635 5638 5640 5631 5627 5625 5612 5611 5635 5656 5663 5663 5661 5658 5656 5653 5652 5651 5649 5648 5647 5646 5644 5643
5659 5661 5663 5662 5660 5658 5654 5651 5654 5655 5654 5657 5662 5661 5659 5659 5661 5664 5665 5661 5657 5655 5655 5654 5656 5655 5655 5656 5656 5655 5654 5650 5649 5653 5654 5653 5655 5659 5663 5662 5658 5656 5653 5650 5651 5652 5647 5641 5638 5638 5639 5641 5646 5652 5654 5652 5649 5644 5642 5646 5645 5641 5641 5637 5630 5630 5627 5619 5620 5616 5601 5602 5625 5644 5649 5650 5651 5649 5647 5647 5645 5643 5641 5640 5637 5636 5635 5632
5650 5652 5652 5651 5650 5647 5643 5644 5648 5647 5646 5649 5650 5649 5651 5650 5652 5657 5658 5652 5648 5648 5646 5645 5646 5646 5646 5647 5645 5645 5646 5641 5638 5643 5646 5644 5647 5653 5655 5652 5648 5646 5643 5642 5642 5640 5635 5632 5630 5627 5626 5627 5632 5637 5641 5644 5642 5634 5634 5640 5637 5633 5633 5627 5623 5622 5612 5609 5614 5606 5591 5598 5619 5630 5633 5636 5639 5638 5640 5641 5638 5634 5633 5631 5628 5625 5623 5619
5640 5642 5642 5639 5638 5637 5635 5638 5640 5637 5637 5639 5638 5639 5642 5641 5644 5649 5647 5642 5640 5639 5637 5635 5636 5637 5636 5636 5635 5635 5636 5633 5629 5631 5636 5636 5638 5642 5644 5642 5640 5638 5635 5633 5632 5628 5624 5623 5622 5618 5615 5616 5619 5625 5630 5633 5630 5624 5624 5627 5627 5626 5624 5618 5616 5610 5599 5601 5606 5595 5586 5596 5611 5618 5620 5624 5627 5627 5629 5631 5629 5627 5623 5619 5616 5611 5607 5604
5630 5631 5632 5630 5627 5626 5627 5631 5629 5626 5629 5630 5627 5628 5631 5632 5635 5638 5635 5632 5631 5630 5627 5625 5627 5627 5625 5626 5626 5624 5625 5626 5622 5620 5623 5626 5627 5629 5631 5632 5631 5629 5627 5625 5624 5620 5613 5611 5613 5610 5607 5607 5609 5614 5621 5620 5614 5611 5612 5614 5614 5614 5613 5610 5604 5597 5594 5593 5589 5586 5587 5588 5594 5604 5609 5614 5618 5617 5619 5620 5620 5618 5612 5603 5599 5596 5593 5592
5620 5621 5622 5620 5616 5616 5620 5622 5620 5617 5619 5619 5615 5617 5621 5623 5624 5625 5624 5624 5622 5621 5618 5615 5617 5617 5614 5615 5615 5611 5614 5616 5613 5611 5612 5613 5615 5618 5619 5621 5619 5619 5619 5617 5614 5612 5603 5599 5603 5603 5598 5600 5602 5603 5609 5609 5602 5601 5602 5602 5603 5602 5601 5599 5590 5587 5592 5584 5570 5578 5587 5578 5578 5589 5594 5600 5606 5606 5607 5607 5604 5601 5596 5589 5586 5586 5587 5588
5610 5610 5610 5608 5607 5609 5611 5611 5611 5608 5609 5608 5605 5605 5610 5612 5612 5613 5614 5613 5612 5611 5609 5606 5607 5608 5606 5606 5604 5601 5603 5605 5603 5604 5604 5601 5603 5606 5608 5610 5607 5607 5609 5607 5604 5602 5594 5588 5594 5594 5588 5590 5593 5592 5596 5596 5591 5590 5591 5591 5593 5592 5589 5586 5581 5581 5584 5571 5561 5572 5577 5567 5568 5576 5577 5582 5588 5589 5589 5590 5587 5585 5583 5581 5580 5581 5581 5580
5600 5600 5600 5597 5598 5602 5601 5600 5600 5599 5599 5599 5595 5595 5600 5602 5602 5603 5601 5599 5599 5601 5599 5595 5596 5598 5597 5597 5594 5591 5593 5594 5593 5594 5594 5593 5592 5593 5596 5598 5597 5596 5598 5596 5594 5593 5585 5579 5584 5585 5578 5578 5580 5581 5583 5583 5579 5579 5579 5579 5580 5579 5578 5576 5572 5572 5571 5561 5559 5564 5560 5556 5562 5564 5563 5565 5568 5570 5573 5575 5575 5574 5572 5570 5570 5570 5569 5567
5590 5591 5591 5588 5589 5592 5592 5589 5590 5589 5589 5590 5586 5587 5591 5591 5591 5593 5590 5588 5588 5590 5589 5585 5584 5586 5587 5587 5585 5582 5583 5584 5583 5583 5583 5583 5583 5582 5582 5584 5587 5587 5586 5585 5585 5584 5578 5572 5574 5575 5567 5564 5569 5571 5570 5570 5567 5565 5566 5567 5568 5567 5566 5564 5562 5562 5559 5553 5553 5554 5547 5545 5549 5549 5550 5553 5554 5557 5559 5561 5562 5561 5559 5558 5558 5558 5557 5555
5581 5580 5581 5580 5579 5582 5582 5580 5580 5579 5578 5581 5580 5579 5581 5580 5580 5582 5581 5579 5578 5579 5579 5577 5575 5575 5576 5576 5576 5574 5574 5574 5573 5573 5573 5574 5575 5575 5573 5574 5577 5577 5577 5578 5576 5575 5572 5565 5566 5566 5555 5552 5561 5562 5558 5558 5555 5551 5553 5558 5561 5559 5556 5553 5553 5553 5549 5543 5543 5543 5539 5534 5532 5534 5539 5544 5545 5546 5545 5546 5548 5547 5545 5546 5545 5545 5545 5543
5570 5569 5570 5569 5569 5573 5573 5571 5571 5569 5568 5572 5572 5569 5569 5570 5570 5571 5570 5568 5568 5569 5570 5568 5567 5566 5565 5566 5567 5565 5564 5564 5563 5563 5563 5564 5567 5568 5565 5565 5567 5566 5568 5570 5567 5566 5565 5558 5558 5557 5546 5542 5553 5555 5550 5548 5540 5537 5547 5554 5552 5550 5547 5545 5544 5542 5539 5536 5532 5529 5527 5524 5520 5521 5527 5531 5532 5533 5531 5530 5532 5532 5531 5532 5532 5532 5532 5531